Theta_e
303 303 303 303 303 302 302 302 302 302 302 302 302 302 302 301 301 301 302 302 302 301 301 300 300 299 299 298 298 297 297 297 297 297 297 296 296 296 296 296 296 295
304 303 303 303 303 303 302 302 302 302 302 302 302 302 302 301 301 301 301 301 301 301 300 300 300 299 299 299 298 298 298 297 297 297 297 297 297 296 297 297 297 296
304 304 304 303 303 303 303 302 302 302 302 302 302 302 302 301 301 301 301 301 301 301 301 300 300 300 300 299 299 299 298 298 298 297 297 297 297 296 297 296 297 297
304 304 304 304 303 303 303 302 302 302 302 302 302 302 302 302 302 301 301 301 301 301 301 301 300 300 300 300 299 299 299 299 298 298 297 297 297 296 296 297 296 296
304 304 304 304 303 303 303 302 303 303 302 302 302 302 302 302 302 302 302 301 301 301 301 300 300 300 300 300 300 299 299 299 299 298 298 297 297 297 297 297 297 297
304 304 304 304 304 303 303 303 303 303 303 303 302 302 302 302 302 302 302 302 301 301 301 301 300 300 300 300 300 299 299 299 299 298 298 298 298 297 297 297 297 297
304 304 304 304 304 304 303 303 303 303 303 303 303 302 302 302 302 302 302 302 302 301 301 301 301 300 300 300 300 300 299 299 299 299 298 298 298 298 297 297 297 297
304 304 303 304 304 303 303 303 303 303 303 303 303 303 303 302 302 302 302 301 301 302 301 301 301 301 301 300 300 300 300 299 299 299 298 298 298 298 298 297 297 297
303 303 303 303 303 303 303 303 303 303 303 303 303 303 303 302 302 302 302 302 301 301 301 301 301 301 301 301 300 300 300 300 299 299 299 298 298 298 298 298 297 297
302 302 302 303 303 303 303 303 303 303 303 303 303 303 303 302 302 302 302 302 302 301 301 301 301 301 301 301 300 300 300 300 300 299 299 299 298 298 298 298 298 297
301 301 302 302 302 302 303 303 303 303 303 303 303 303 303 303 302 302 302 302 302 301 301 301 301 301 301 301 301 300 300 300 300 300 299 299 299 299 298 298 298 298
301 301 301 301 302 302 302 302 302 303 303 303 303 303 302 302 302 302 302 302 302 301 301 301 301 301 301 301 300 300 300 300 300 300 299 299 299 299 299 299 298 298
300 301 301 301 301 301 301 301 301 301 301 301 301 301 301 301 301 301 301 301 301 301 301 301 301 301 301 300 300 300 300 300 300 300 299 299 299 299 299 299 299 298
300 300 300 300 301 300 300 300 300 300 300 300 300 300 300 300 300 300 300 300 300 300 300 300 300 300 300 300 300 300 300 300 300 300 299 299 299 299 299 299 299 299
299 300 300 300 300 300 300 300 299 299 299 299 299 299 299 299 299 299 299 299 299 299 299 299 299 300 300 300 300 300 300 300 300 299 299 299 299 299 299 299 298 298
299 299 299 299 299 299 299 299 299 299 299 299 299 299 298 299 298 299 299 299 299 299 299 299 299 299 299 299 299 299 300 299 299 299 299 299 299 299 299 299 298 298
299 300 299 299 299 299 299 299 299 299 298 298 298 298 298 298 298 298 298 298 298 298 298 298 298 298 298 298 298 299 299 299 299 299 299 298 298 298 298 298 298 298
299 299 299 299 299 299 298 298 298 298 298 298 298 298 298 298 298 298 298 298 298 298 298 298 298 298 298 298 298 298 298 298 298 298 298 298 298 298 298 298 298 298
298 298 298 298 298 297 297 297 297 297 297 297 297 297 297 297 297 297 297 297 297 297 297 297 297 297 297 298 298 298 297 298 298 297 297 297 297 297 297 297 297 297
297 297 297 297 297 296 296 296 296 296 296 296 296 296 296 297 297 296 296 297 297 297 297 297 297 297 297 297 297 297 297 297 297 297 297 296 296 296 296 296 296 296
296 296 296 296 296 296 295 295 295 295 296 295 296 296 296 296 296 296 296 296 296 296 296 296 296 296 296 296 296 297 296 296 296 296 296 296 296 296 296 295 296 296
295 295 295 295 295 295 295 295 295 295 295 295 295 295 295 295 295 295 295 295 295 296 295 295 296 296 296 296 296 296 296 296 296 295 295 295 295 295 295 295 295 295
294 294 294 294 294 294 294 294 294 294 294 294 294 294 294 294 294 294 294 295 295 295 295 295 295 295 295 295 295 295 295 295 295 295 295 295 295 295 295 295 295 295
292 292 292 293 293 293 293 293 293 293 293 293 293 293 293 294 294 294 294 294 294 294 294 294 295 295 295 295 295 295 295 295 295 295 294 294 294 294 294 294 294 294
290 291 292 292 292 292 292 292 292 292 292 293 293 293 293 293 293 293 293 294 294 294 294 294 295 295 295 295 295 295 295 295 295 294 294 294 294 294 294 294 294 294
289 290 291 291 292 292 291 291 291 291 291 291 291 292 292 293 293 293 293 293 293 294 294 294 294 294 295 295 295 295 295 295 295 295 294 294 294 294 294 294 294 294
Wind_Speed
20 20 20 20 19 19 19 20 20 20 20 20 20 20 19 19 18 18 19 19 19 19 19 19 20 20 21 21 21 22 23 23 23 23 22 22 22 22 22 22 22 22
20 20 21 21 21 21 20 20 20 21 22 22 22 22 22 21 21 20 21 21 21 21 21 21 21 22 23 24 24 24 25 26 26 25 25 25 25 25 25 25 24 25
20 20 21 22 23 23 22 21 21 22 23 23 23 23 23 23 23 23 23 23 24 24 23 23 23 24 25 25 26 27 27 28 28 28 27 28 28 27 28 28 27 27
20 20 21 22 23 23 23 22 22 23 23 24 24 23 23 24 24 24 25 25 26 26 26 26 25 25 26 26 27 28 29 30 30 29 29 30 30 30 30 30 30 30
21 21 21 21 22 23 23 24 24 24 24 25 25 24 24 24 24 25 25 26 27 28 28 28 28 28 28 27 28 29 30 31 31 30 30 32 32 32 32 31 31 32
22 21 21 21 21 22 23 24 25 25 25 26 26 26 26 26 26 25 26 26 27 28 29 29 30 30 30 29 30 31 32 32 32 32 32 33 33 33 33 32 32 33
22 22 22 22 22 22 23 25 25 25 26 26 26 26 26 27 27 27 27 27 27 28 29 29 30 31 31 31 31 32 33 33 33 32 33 34 34 34 34 33 34 34
22 22 22 23 23 24 25 26 26 27 26 26 26 27 26 27 27 27 27 28 28 29 29 30 31 31 31 31 32 33 34 34 34 33 34 35 34 34 35 34 34 35
21 21 21 22 24 25 26 27 28 28 27 27 28 28 27 27 27 27 27 28 29 30 30 31 31 32 32 32 33 34 34 34 34 34 34 35 35 36 36 35 34 35
22 22 21 22 23 24 26 26 27 28 27 27 28 28 28 28 28 28 27 28 29 30 31 32 32 32 33 33 34 34 35 36 35 35 35 36 36 37 36 35 35 36
24 23 22 23 23 23 24 25 25 26 26 26 26 27 28 28 28 27 28 28 29 31 31 32 32 33 33 34 35 35 35 36 36 36 36 36 37 37 37 37 36 38
25 24 24 24 24 23 23 24 24 24 24 24 24 25 26 27 27 27 28 28 30 30 31 32 32 33 34 35 35 36 36 37 37 37 37 37 37 38 38 38 38 39
24 24 24 24 23 23 23 23 23 23 23 23 23 23 24 25 26 27 28 28 29 30 31 32 32 33 34 35 36 36 36 36 37 37 37 37 38 39 38 38 39 40
25 24 23 23 23 23 23 23 23 23 23 23 22 22 23 24 25 27 27 28 29 29 30 31 31 33 35 35 36 35 35 36 36 36 37 38 38 39 39 39 40 40
25 25 24 24 24 23 24 24 24 24 24 24 23 23 24 25 25 26 27 28 28 29 29 30 31 33 35 35 35 34 34 34 35 35 36 37 37 38 39 40 41 41
26 25 26 26 26 25 25 26 26 26 26 26 26 26 26 26 26 26 27 28 28 29 29 30 31 33 35 35 34 34 34 34 34 34 35 35 37 37 38 40 41 41
27 27 27 28 28 28 28 28 29 29 29 29 29 29 29 28 28 28 28 29 29 29 30 30 32 34 34 34 34 33 34 35 34 35 35 35 36 36 37 39 40 41
28 28 29 29 30 30 30 30 30 30 31 30 30 30 31 30 30 30 30 30 29 30 30 31 33 35 35 35 34 33 33 34 35 35 35 36 36 37 38 39 39 41
28 29 30 30 31 31 32 32 32 31 31 30 30 31 30 30 30 30 30 30 30 30 30 32 34 35 35 35 35 34 33 34 35 35 35 36 37 37 39 39 39 39
29 29 29 30 30 31 32 32 32 32 31 31 31 31 31 31 31 31 31 31 30 30 30 31 33 34 35 35 34 34 33 34 35 36 36 37 37 38 39 39 39 38
30 30 30 30 31 31 31 31 31 31 32 32 31 31 31 31 32 32 33 32 32 31 31 32 33 34 35 35 34 34 33 33 34 35 36 36 37 38 38 39 38 37
32 31 31 31 32 32 32 32 32 32 32 32 31 31 31 31 30 31 31 32 32 32 32 33 34 34 35 35 35 35 35 34 34 34 34 35 36 36 36 37 37 36
33 33 32 32 32 32 32 33 33 34 34 33 33 32 32 32 32 31 31 31 32 32 32 33 34 34 34 35 34 34 34 35 34 34 33 33 35 36 35 35 35 35
32 32 32 32 32 32 32 33 34 35 35 35 35 34 34 34 34 34 33 33 32 32 32 33 34 34 33 33 33 32 33 34 34 33 33 33 35 35 34 34 34 34
31 31 31 31 31 31 31 32 33 33 34 35 35 34 35 35 35 35 35 34 34 35 34 33 35 35 34 33 33 33 33 34 34 32 32 32 34 34 34 33 32 32
30 30 30 30 30 30 30 31 31 31 32 33 34 34 34 34 34 34 34 34 34 34 34 34 34 36 35 34 34 34 33 34 35 33 32 33 35 34 33 33 32 32
Wind_Direction
278 276 275 275 274 276 277 276 274 271 269 268 267 270 272 274 273 269 268 270 271 273 275 274 273 271 268 266 263 261 261 262 262 264 263 262 264 264 263 261 257 256
279 277 275 273 273 275 276 276 276 272 271 270 270 271 272 273 272 268 266 268 269 270 272 271 269 269 267 266 264 262 262 262 262 261 260 260 261 260 261 262 261 260
280 279 277 276 276 276 277 278 276 274 273 273 273 273 274 274 272 269 267 267 268 269 269 269 268 266 266 265 264 263 262 262 262 262 260 259 259 257 258 260 260 260
283 282 281 281 281 281 280 278 277 276 276 276 277 278 277 277 275 272 270 268 268 269 269 268 267 266 265 265 263 262 262 262 263 263 259 258 258 256 257 257 256 257
287 285 285 285 286 284 281 278 279 280 279 279 281 281 279 279 277 274 273 272 270 270 270 269 268 266 265 264 262 261 261 261 262 260 256 256 257 256 256 255 253 254
292 290 289 288 288 286 282 281 282 283 282 282 283 282 281 280 278 277 276 275 275 274 272 271 269 267 265 263 261 260 260 260 261 259 255 255 256 255 254 253 252 252
300 297 294 291 288 285 283 283 285 284 285 286 285 284 283 281 279 279 278 277 276 274 274 273 271 269 267 264 261 259 259 259 259 258 255 255 255 254 252 250 250 250
306 301 298 293 288 285 283 284 286 287 288 287 285 286 286 283 282 281 279 276 275 274 274 273 272 270 268 264 261 260 259 259 258 256 255 255 254 253 252 250 249 248
312 308 303 297 291 288 286 286 288 289 290 287 287 289 288 285 284 283 280 277 274 274 273 272 271 270 268 265 262 260 259 259 258 256 254 254 253 253 254 252 250 249
322 319 314 306 300 296 294 294 294 293 292 290 290 290 289 288 287 285 282 278 275 274 273 272 271 270 269 266 263 261 260 259 259 257 256 255 254 255 254 252 250 250
328 326 322 318 314 310 307 306 305 302 299 296 294 292 292 291 289 286 283 279 276 276 274 273 273 272 270 268 265 263 261 260 259 258 257 256 256 256 256 253 252 252
331 330 328 325 323 320 317 314 313 309 305 301 298 295 294 292 289 287 285 281 280 279 277 275 275 273 271 269 268 265 262 261 260 259 258 258 258 258 257 255 253 253
333 332 330 328 326 324 321 318 316 314 310 307 303 299 296 293 291 289 287 285 283 281 279 277 276 275 273 270 268 265 262 260 260 259 259 259 259 259 258 257 256 254
335 333 330 328 327 325 323 321 320 318 316 313 309 304 300 297 294 292 290 288 285 282 280 279 277 275 273 271 268 266 263 261 260 259 259 260 260 260 260 259 258 257
336 334 333 331 330 328 326 324 323 321 319 316 312 308 304 301 298 296 293 290 288 286 283 281 278 275 273 272 269 268 266 263 262 260 259 260 260 261 261 261 260 259
338 337 335 333 333 331 330 328 326 324 321 318 316 312 309 307 303 300 296 293 292 290 287 284 280 277 277 276 273 271 270 267 265 263 261 261 260 261 262 262 261 260
342 340 337 335 335 333 332 330 327 326 323 321 320 318 316 314 310 306 303 299 297 293 290 288 285 284 284 284 281 278 275 272 269 267 265 264 262 262 262 263 264 263
346 344 340 338 337 336 334 332 330 327 326 325 323 322 322 319 316 312 310 307 303 299 295 293 291 292 292 291 288 285 282 279 275 271 269 267 265 263 263 264 264 265
349 345 342 339 338 337 335 334 333 331 330 329 327 326 324 321 319 317 314 312 308 304 301 299 298 298 297 296 295 292 290 286 281 276 273 270 268 266 265 264 264 265
349 345 342 339 338 337 336 335 335 333 333 332 330 329 326 323 321 319 317 315 312 309 306 304 302 302 302 300 299 298 296 292 287 282 278 275 272 269 267 266 265 265
348 345 342 340 339 338 338 337 336 334 333 332 331 328 325 322 321 319 317 315 313 311 308 305 304 305 305 304 303 302 301 297 291 286 282 279 277 275 272 271 270 268
346 344 342 341 340 340 339 338 336 334 333 332 330 327 325 322 320 318 317 315 314 313 310 307 306 307 308 307 306 305 304 302 297 291 287 283 281 280 278 276 274 272
345 344 342 341 341 340 339 338 336 335 334 333 331 328 326 325 322 320 319 316 315 314 312 310 309 311 312 310 309 309 306 303 299 295 291 287 286 285 283 280 279 275
343 342 341 340 340 339 338 337 336 335 334 333 332 328 326 325 324 322 321 320 318 317 316 313 312 314 317 316 315 315 312 307 302 297 294 291 289 289 287 284 282 279
342 341 340 339 338 338 338 337 335 335 334 333 332 328 326 325 324 322 321 321 321 320 319 317 316 317 320 320 320 321 319 314 309 302 297 296 295 294 293 290 287 285
343 341 340 339 339 338 337 336 335 335 334 333 330 328 325 324 323 322 320 319 320 320 320 319 318 318 320 320 320 321 320 319 314 308 303 302 301 299 297 296 294 292